Fort Stockton, TX

12:14 AM CDT on May 24, 2017 (GMT -0500)
Fort Stockton-Pecos County

Weather History for KFST - January, 2012

Change the Weather History Date:

Monday, January 9, 2012

  Actual Average Record
Temperature  
Mean Temperature 38 °F -  
Max Temperature 44 °F 59 °F 84 °F (2017)
Min Temperature 32 °F 35 °F 26 °F (1999)
Degree Days  
Heating Degree Days 27    
Moisture  
Dew Point 32 °F    
Average Humidity 94    
Maximum Humidity 100    
Minimum Humidity 76    
Precipitation  
Precipitation 0.74 in - - ()
Sea Level Pressure  
Sea Level Pressure 30.19 in    
Wind  
Wind Speed 12 mph (NW)    
Max Wind Speed 17 mph    
Max Gust Speed 21 mph    
Visibility 3 miles    
Events Fog , Rain , Snow , Thunderstorm    
Averages and records for this station are not official NWS values.
T = Trace of Precipitation, MM = Missing Value Source: NWS Daily Summary

Daily Weather History Graph

Daily Weather History Graph

Search for Another Location

Airport or City:

Trip Planner

Search our weather history database for the weather conditions in past years. The results will help you decide how hot, cold, wet, or windy it might be!

Date:

Astronomy

Jan. 09, 2012 Rise Set
Actual Time 7:50 AM CST 6:06 PM CST
Civil Twilight 7:24 AM CST 6:33 PM CST
Nautical Twilight 6:54 AM CST 7:03 PM CST
Astronomical Twilight 6:25 AM CST 7:32 PM CST
Moon 6:50 PM CST (1/9) 7:55 AM CST (1/9)
Length of Visible Light 11h 08m
Length of Day
10h 16m
Full, 100% of the Moon is Illuminated
Jan 9
Full
Jan 16
Last Quarter
Jan 23
New
Jan 30
First Quarter
Feb 7
Full

Hourly Weather History & Observations

Time (CST) Temp. Windchill Dew Point Humidity Pressure Visibility Wind Dir Wind Speed Gust Speed Precip Events Conditions
12:17 AM 44.6 °F 38.8 °F 37.4 °F 76% 30.10 in 9.0 mi North 11.5 mph - 0.00 in Rain Light Rain
1:53 AM 42.1 °F 36.6 °F 39.9 °F 92% 30.05 in 9.0 mi North 9.2 mph - 0.02 in Rain Light Rain
2:53 AM 41.0 °F 35.2 °F 39.0 °F 93% 30.07 in 7.0 mi North 9.2 mph - 0.00 in   Overcast
3:23 AM 41.0 °F 34.3 °F 39.2 °F 93% 30.13 in 4.0 mi North 11.5 mph - 0.00 in Rain Light Rain
3:31 AM 39.2 °F 30.8 °F 39.2 °F 100% 30.13 in 3.0 mi North 15.0 mph - 0.01 in Rain Light Rain
3:44 AM 39.2 °F 31.6 °F 37.4 °F 93% 30.13 in 2.5 mi North 12.7 mph - 0.05 in Rain Rain
3:53 AM 39.0 °F 31.0 °F 37.9 °F 96% 30.08 in 4.0 mi North 13.8 mph 20.7 mph 0.06 in Rain Light Rain
4:00 AM 39.2 °F 31.6 °F 37.4 °F 93% 30.15 in 6.0 mi North 12.7 mph - 0.01 in Rain Light Rain
4:14 AM 37.4 °F 29.3 °F 35.6 °F 93% 30.16 in 6.0 mi North 12.7 mph - 0.02 in Rain , Thunderstorm Light Rain
4:19 AM 37.4 °F 29.3 °F 35.6 °F 93% 30.16 in 6.0 mi North 12.7 mph - 0.03 in Rain , Thunderstorm Rain
4:24 AM 37.4 °F 27.8 °F 35.6 °F 93% 30.16 in 5.0 mi North 17.3 mph - 0.04 in Rain Light Rain
4:35 AM 37.4 °F 28.5 °F 35.6 °F 93% 30.15 in 4.0 mi North 15.0 mph - 0.06 in Rain Rain
4:53 AM 35.1 °F 25.2 °F 33.1 °F 92% 30.10 in 5.0 mi North 16.1 mph - 0.09 in Rain Rain
5:02 AM 33.8 °F 24.3 °F 33.8 °F 100% 30.15 in 2.5 mi North 13.8 mph - 0.03 in Snow Light Snow
5:10 AM 33.8 °F 24.8 °F 32.0 °F 93% 30.16 in 1.2 mi NNW 12.7 mph - 0.05 in Snow Light Snow
5:23 AM 32.0 °F 24.8 °F 32.0 °F 100% 30.17 in 1.2 mi NNW 8.1 mph - 0.09 in Snow Light Snow
5:38 AM 32.0 °F 24.2 °F 32.0 °F 100% 30.16 in 0.8 mi NNW 9.2 mph - 0.12 in Snow Light Snow
5:45 AM 32.0 °F 24.8 °F 32.0 °F 100% 30.17 in 0.8 mi NNW 8.1 mph - 0.14 in Snow Light Snow
5:53 AM 32.0 °F 24.8 °F 32.0 °F 100% 30.13 in 0.8 mi NW 8.1 mph - 0.16 in Snow Light Snow
6:05 AM 32.0 °F 25.6 °F 32.0 °F 100% 30.18 in 1.0 mi WNW 6.9 mph - 0.04 in Snow Light Snow
6:19 AM 32.0 °F 24.2 °F 32.0 °F 100% 30.18 in 1.0 mi NW 9.2 mph - 0.06 in Snow Light Snow
6:28 AM 32.0 °F 24.2 °F 32.0 °F 100% 30.18 in 0.8 mi NW 9.2 mph - 0.07 in Snow Light Snow
6:35 AM 32.0 °F 23.6 °F 32.0 °F 100% 30.19 in 1.0 mi NW 10.4 mph - 0.08 in Snow Light Snow
6:53 AM 32.0 °F 24.2 °F 32.0 °F 100% 30.16 in 1.0 mi NNW 9.2 mph - 0.10 in Snow Light Snow
7:26 AM 32.0 °F 23.0 °F 32.0 °F 100% 30.20 in 0.8 mi NNW 11.5 mph - 0.02 in Snow Light Snow
7:53 AM 32.0 °F 22.5 °F 32.0 °F 100% 30.18 in 0.8 mi NW 12.7 mph - 0.15 in Snow Light Snow
8:53 AM 32.0 °F 23.0 °F 32.0 °F 100% 30.19 in 0.5 mi NW 11.5 mph - 0.10 in Fog , Snow Snow
10:27 AM 32.0 °F 22.1 °F 30.2 °F 93% 30.28 in 1.0 mi NNW 13.8 mph - 0.01 in Snow Light Snow
10:53 AM 32.0 °F 23.6 °F 32.0 °F 100% 30.26 in 1.0 mi NNW 10.4 mph - 0.02 in Snow Light Snow
11:13 AM 32.0 °F 24.2 °F 32.0 °F 100% 30.28 in 0.8 mi NW 9.2 mph - 0.01 in Snow Light Snow
11:53 AM 33.1 °F 23.9 °F 30.9 °F 92% 30.25 in 0.8 mi NW 12.7 mph - 0.02 in Snow Light Snow
12:15 PM 33.8 °F 24.3 °F 30.2 °F 87% 30.26 in 1.0 mi NW 13.8 mph - 0.01 in Snow Light Snow
12:37 PM 33.8 °F 24.8 °F 30.2 °F 87% 30.25 in 1.5 mi NW 12.7 mph - 0.01 in Snow Light Snow
12:46 PM 33.8 °F 24.3 °F 30.2 °F 87% 30.25 in 2.5 mi NW 13.8 mph - 0.01 in Snow Light Snow
12:53 PM 33.1 °F 23.4 °F 30.9 °F 92% 30.22 in 2.0 mi NW 13.8 mph - 0.01 in Snow Light Snow
1:23 PM 33.8 °F 24.8 °F 30.2 °F 87% 30.23 in 9.0 mi NW 12.7 mph - 0.00 in Snow Light Snow
1:39 PM 33.8 °F 23.9 °F 30.2 °F 87% 30.23 in 1.8 mi NW 15.0 mph - 0.00 in Snow Light Snow
1:53 PM 33.1 °F 22.6 °F 30.9 °F 92% 30.20 in 1.0 mi WNW 16.1 mph - 0.00 in Snow Light Snow
2:11 PM 33.8 °F 23.5 °F 30.2 °F 87% 30.23 in 1.2 mi NW 16.1 mph - 0.00 in Snow Light Snow
2:53 PM 33.1 °F 23.4 °F 30.9 °F 92% 30.21 in 1.8 mi NW 13.8 mph - 0.00 in Snow Light Snow
3:15 PM 33.8 °F 24.3 °F 30.2 °F 87% 30.22 in 3.0 mi WNW 13.8 mph - 0.00 in Snow Light Snow
3:53 PM 33.1 °F 23.4 °F 30.9 °F 92% 30.21 in 4.0 mi NW 13.8 mph - 0.00 in   Overcast
4:29 PM 32.0 °F 22.1 °F 30.2 °F 93% 30.23 in 4.0 mi WNW 13.8 mph - 0.00 in Snow Light Snow
4:53 PM 32.0 °F 23.0 °F 30.9 °F 96% 30.23 in 3.0 mi NW 11.5 mph - 0.00 in Snow Light Snow
5:01 PM 32.0 °F 23.0 °F 30.2 °F 93% 30.24 in 1.8 mi WNW 11.5 mph - 0.00 in Snow Light Snow
5:13 PM 32.0 °F 24.2 °F 30.2 °F 93% 30.24 in 1.0 mi WNW 9.2 mph - 0.00 in Snow Light Snow
5:53 PM 32.0 °F 23.0 °F 30.9 °F 96% 30.23 in 1.0 mi WNW 11.5 mph - 0.01 in Snow Light Snow
6:03 PM 32.0 °F 23.6 °F 30.2 °F 93% 30.24 in 1.2 mi WNW 10.4 mph - 0.00 in Snow Light Snow
6:10 PM 32.0 °F 23.6 °F 30.2 °F 93% 30.23 in 1.0 mi WNW 10.4 mph - 0.00 in Snow Light Snow
6:14 PM 32.0 °F 23.6 °F 30.2 °F 93% 30.23 in 1.2 mi NW 10.4 mph - 0.00 in Snow Light Snow
6:27 PM 32.0 °F 24.2 °F 30.2 °F 93% 30.23 in 2.0 mi WNW 9.2 mph - 0.00 in Snow Light Snow
6:45 PM 32.0 °F 22.5 °F 30.2 °F 93% 30.23 in 3.0 mi WNW 12.7 mph - 0.00 in Snow Light Snow
6:53 PM 32.0 °F 23.0 °F 30.9 °F 96% 30.23 in 2.5 mi WNW 11.5 mph - 0.00 in Snow Light Snow
7:40 PM 32.0 °F 23.0 °F 30.2 °F 93% 30.23 in 3.0 mi WNW 11.5 mph - 0.00 in Snow Light Snow
7:53 PM 32.0 °F 22.5 °F 30.9 °F 96% 30.22 in 5.0 mi WNW 12.7 mph - 0.00 in   Overcast
8:53 PM 33.1 °F 25.5 °F 32.0 °F 96% 30.22 in 5.0 mi WNW 9.2 mph - N/A   Overcast
9:01 PM 33.8 °F 26.4 °F 32.0 °F 93% 30.23 in 6.0 mi West 9.2 mph - N/A   Overcast
9:19 PM 33.8 °F 27.0 °F 32.0 °F 93% 30.22 in 6.0 mi West 8.1 mph - N/A   Overcast
9:53 PM 33.1 °F 26.9 °F 32.0 °F 96% 30.22 in 6.0 mi West 6.9 mph - N/A   Overcast
10:53 PM 33.1 °F 26.1 °F 32.0 °F 96% 30.22 in 7.0 mi WSW 8.1 mph - N/A   Overcast
11:53 PM 34.0 °F 27.2 °F 32.0 °F 92% 30.22 in 10.0 mi SW 8.1 mph - N/A   Overcast